{"data":{"norad_id":69770,"intl_designator":"2026-151H","name":"KUIPER-00609","alt_names":[],"object_type":"PAYLOAD","status":"ACTIVE","operator":null,"country":"US","launch_date":"2026-07-02","launch_site_code":"AFETR","launch_vehicle":null,"mission":null,"orbit_class":"UNKNOWN","rcs_meters":null,"size_class":null,"mass_kg":null,"dimensions":null,"purposes":[],"wikipedia_slug":null,"has_3d_model":false,"image_url":null,"decayed_at":null,"tle_current":{"epoch":"2026-09-20T04:56:39.602688Z","epoch_age_seconds":52109,"freshness":"FRESH","line1":"1 69770U 26151H   26263.20601392  .00001571  00000+0  25334-3 0  9999","line2":"2 69770  51.9016 227.8074 0002398  36.6812 323.4313 14.76620788 12169","mean_motion":14.76620788,"eccentricity":0.0002398,"inclination_deg":51.9016,"raan_deg":227.8074,"arg_perigee_deg":36.6812,"mean_anomaly_deg":323.4313,"bstar":0.00025334,"rev_number":1216,"period_min":97.519959877471,"perigee_km":638.32804952076,"apogee_km":641.69395330224,"semimajor_km":7018.1480014115,"source":"CELESTRAK","updated_at":"2026-09-20T09:00:25.089483Z"}}}